"Pseudo-MPEC" for P11l8na

Created 2021 Sep 15 16:07:22 UT using Find_Orb

Click here for an explanation of pseudo-MPECs

 
 Astrometry: 
     P11l8na  C2021 09 13H73BeMD?:Za)7C)Y5\97YXyx4'lQ(oSs\O^0M$J-?SD6WRLJi,hGF51
     P11l8na  C2021 09 13+@5f3fn\sAHNu^R\W`Ztv7LIao/*=nJ,47M]MF$FI*txB'[g;Nc-F51
     P11l8na  C2021 09 13fHIORfCWM2HoPsvI$pQ]R(\_\H.,R:AstrometryLuKy-tyVJTP#F51
     P11l8na  C2021 09 13.JY.c@ok.N%ZW1,redacted;,\,n0_J4m4K._*=aGZ'pK*$ycu3@F51
     P11l8na KC2021 09 14,tLBZ@SskggE8TaBKC+)90grdPGwJ-KwO+q(%Jlb*pAuCJZ=jniTL01
     P11l8na KC2021 09 14x6,#C1TM=K/BhYh*_LROIV/Ptyx=.PTnSQ%-XB3hUG,_a29gehkuL01
     P11l8na KC2021 09 14wAIPsg^#uRW2_TQMM,N3k5F^#eLn`Ii0TQ8?LEPRWokeF8-GLR\LL01
     P11l8na KC2021 09 14797=awAPauF83fd2qiebUf[Gs(M%dyX64?hUJOPph=6,PS#sr@N^L01
     P11l8na pC2021 09 14!PW]#7!#SYmAy[v#1sSD09N=qG57PNlZ+)]v*:*.KqCHt.(maW!TL01
     P11l8na |C2021 09 15NrVc`lU@Q^WNBrX`Z)W#+Q24yM:0(I_%W=eIL+0N-4`mHj%LOV8c807
     P11l8na |C2021 09 15/?XtH'Y`6@K9l09WLBd;\1cL6iVG[?0!w*IX=%-yCFl-:#46gOrR807
     P11l8na |C2021 09 15lyi\U6qNr+u^H!WVFbpIv,j%YwqXf-gV%;VwA;MZd(7@(kv)SG,)807
     P11l8na |C2021 09 15SQ.2NZDng1JFMZxHvK(:SsZ5?0rL1%V?V+^xPR@;Vfh6kfiMvG:2807
     P11l8na |C2021 09 15@%*l6cUsAaWskcm,?4u0R@vBm#nq*4v5'3R]BL$)]RtGE'fYVP2P807
     P11l8na |C2021 09 15M.C*L8!1Ra?clickREa$#EUscUT)h04:a.^E5PFVRFrqR=31tXMP807
     P11l8na  C2021 09 15Qj_,MMpa(1HjIG%yH%/T%'2x9CsKp#:bgi3OqhereDQbGSA!!//ZF52
     P11l8na  C2021 09 15k5lC(5S_sVS5rA%+JP)!lPThP/i:s#+.pN7_EDyRTMM3Xw=bS0l-F52
     P11l8na  C2021 09 15RCqu]jxBRHJCboha4BmBoA/Njq6\YBY*=N8cJX8gFZ5BPVQXN2H^F51
     P11l8na  C2021 09 15Yk=b4k$MKC6u#Hgko7,6CddUfdW$wv:e1_C81@(`DPNiEforPI7\F52
     P11l8na  C2021 09 15_4#CfhexplanationTD?WAZv,ssD*:Lk^s'IPm+i'_l$%ZXI5j4eF51
     P11l8na  C2021 09 15v-_tlSF7k#0r%YHrkS#]W(r5+L%P`DG)!m\!*M$:y]M!/ElbPs^HF51

Station data:
(807) Cerro Tololo Observatory, La Serena  (S30.169136 W70.805900)  Chile.
(F51) Pan-STARRS 1, Haleakala  (N20.707235 W156.255910)  US/Hawaii.
   Observers N. Primak, A. Schultz, S. Watters, J. Thiel, T. Goggia. Measurer
   PS1 Science Consortium. 1.8-m Ritchey-Chrétien + CCD.
(F52) Pan-STARRS 2, Haleakala  (N20.707384 W156.255910)  US/Hawaii. 1.8-m
   Ritchey-Chrétien + CCD.
(L01) Višnjan Observatory, Tičan  (N45.290900 E13.749300)  Croatia.
   Observers K. Korlević, E. Pettarin. Measurer E. Pettarin. 1.0-m f/2.9
   reflector + CCD.

Orbital elements:  P11l8na
   Perihelion 2021 Oct 30.899967 +/- 0.221468 TT = 21:35:57 (JD 2459518.399967)
Epoch 2021 Sep 15.0 TT = JDT 2459472.5   Earth MOID: 0.1538   Ma: 0.0585
M 336.26706038 +/- 0.3048853        (J2000 ecliptic)          AutoNEOCP
n   0.51705788 +/- 0.00439587       Peri.  254.90880 +/- 0.2490885
a   1.53736364 +/- 0.00871314       Node   156.18900 +/- 0.0753850
e   0.3404856 +/- 0.00327371        Incl.   13.72329 +/- 0.0823113
P   1.91/696.23d           H 22.0   G  0.15   U  9.1  
q 1.01391332 +/- 0.000808672    Q 2.06081397 +/- 0.0168614
From 21 observations 2021 Sept. 13-15; mean residual 0".14
Residuals in arcseconds: 
210913 F51  .03+  .00     210914 L01  .32-  .01-    210915 807  .07+  .12+    
210913 F51  .05-  .10-    210914 L01  .36+  .07+    210915 F52  .01+  .03-    
210913 F51  .08+  .09-    210915 807  .15-  .03-    210915 F52  .09-  .06+    
210913 F51  .09-  .06-    210915 807  .13+  .16-    210915 F51  .01+  .01+    
210914 L01  .22+  .05-    210915 807  .13+  .06-    210915 F52  .07+  .09-    
210914 L01  .09+  .04-    210915 807  .12+  .11+    210915 F51  .18-  .03+    
210914 L01  .35-  .38+    210915 807  .05+  .10+    210915 F51  .05-  .10-    

Ephemerides (geocentric):
Date (UTC) HH   RA              Dec         delta   r     elong  mag " sig PA
---- -- -- --  -------------   -----------  ------ ------ -----  --- ---- ---
2021 09 15 16  04 19 22.225   -09 15 32.18  .23888 1.1055 108.7 21.3 .056 131
2021 09 15 17  04 19 39.188   -09 17 23.78  .23885 1.1054 108.7 21.3 .054 130
2021 09 15 18  04 19 56.152   -09 19 15.35  .23882 1.1052 108.6 21.3 .052 129
2021 09 15 19  04 20 13.116   -09 21 06.91  .23879 1.1051 108.6 21.3 .049 128
2021 09 15 20  04 20 30.082   -09 22 58.43  .23875 1.1049 108.6 21.3 .047 126
2021 09 15 21  04 20 47.047   -09 24 49.94  .23872 1.1048 108.5 21.3 .045 125
2021 09 15 22  04 21 04.014   -09 26 41.42  .23869 1.1046 108.5 21.3 .043 124
2021 09 15 23  04 21 20.980   -09 28 32.88  .23866 1.1044 108.5 21.3 .041 123
2021 09 16 00  04 21 37.948   -09 30 24.31  .23864 1.1043 108.4 21.3 .038 121
2021 09 16 01  04 21 54.915   -09 32 15.71  .23861 1.1041 108.4 21.3 .036 119
2021 09 16 02  04 22 11.883   -09 34 07.09  .23858 1.1040 108.3 21.3 .034 117
2021 09 16 03  04 22 28.852   -09 35 58.44  .23855 1.1038 108.3 21.3 .032 115
2021 09 16 04  04 22 45.820   -09 37 49.77  .23852 1.1037 108.3 21.3 .029 113
2021 09 16 05  04 23 02.789   -09 39 41.06  .23849 1.1035 108.2 21.3 .027 110
2021 09 16 06  04 23 19.758   -09 41 32.33  .23847 1.1034 108.2 21.3 .025 107
2021 09 16 07  04 23 36.728   -09 43 23.57  .23844 1.1032 108.2 21.3 .023 103
2021 09 16 08  04 23 53.697   -09 45 14.78  .23841 1.1031 108.1 21.3 .021  99
2021 09 16 09  04 24 10.667   -09 47 05.96  .23839 1.1029 108.1 21.3 .019  93
2021 09 16 10  04 24 27.637   -09 48 57.11  .23836 1.1028 108.1 21.3 .017  86
2021 09 16 11  04 24 44.607   -09 50 48.23  .23834 1.1026 108.0 21.3 .016  78
2021 09 16 12  04 25 01.577   -09 52 39.31  .23831 1.1025 108.0 21.3 .015  69
2021 09 16 13  04 25 18.547   -09 54 30.37  .23829 1.1023 108.0 21.3 .014  57
2021 09 16 14  04 25 35.517   -09 56 21.39  .23826 1.1022 107.9 21.3 .014  45
2021 09 16 15  04 25 52.486   -09 58 12.38  .23824 1.1020 107.9 21.3 .014  33
2021 09 16 16  04 26 09.456   -10 00 03.33  .23822 1.1018 107.8 21.3 .015  22
2021 09 16 17  04 26 26.425   -10 01 54.25  .23819 1.1017 107.8 21.3 .016  12
2021 09 16 18  04 26 43.395   -10 03 45.13  .23817 1.1015 107.8 21.3 .018   4
2021 09 16 19  04 27 00.364   -10 05 35.98  .23815 1.1014 107.7 21.3 .020 177
2021 09 16 20  04 27 17.332   -10 07 26.80  .23813 1.1012 107.7 21.3 .023 171
2021 09 16 21  04 27 34.301   -10 09 17.57  .23810 1.1011 107.7 21.3 .025 167
2021 09 16 22  04 27 51.269   -10 11 08.31  .23808 1.1009 107.6 21.3 .028 163
2021 09 16 23  04 28 08.237   -10 12 59.01  .23806 1.1008 107.6 21.3 .031 160
2021 09 17 00  04 28 25.204   -10 14 49.68  .23804 1.1006 107.6 21.3 .034 157
2021 09 17 01  04 28 42.171   -10 16 40.30  .23802 1.1005 107.5 21.3 .037 155
2021 09 17 02  04 28 59.137   -10 18 30.89  .23800 1.1003 107.5 21.3 .040 153
2021 09 17 03  04 29 16.103   -10 20 21.43  .23798 1.1002 107.5 21.3 .043 151
2021 09 17 04  04 29 33.068   -10 22 11.94  .23796 1.1000 107.4 21.3 .046 149
2021 09 17 05  04 29 50.033   -10 24 02.41  .23795 1.0999 107.4 21.3 .050 147
2021 09 17 06  04 30 06.997   -10 25 52.83  .23793 1.0997 107.3 21.3 .053 146
2021 09 17 07  04 30 23.960   -10 27 43.21  .23791 1.0996 107.3 21.3 .057 145
2021 09 17 08  04 30 40.923   -10 29 33.55  .23789 1.0994 107.3 21.3 .060 144
2021 09 17 09  04 30 57.884   -10 31 23.85  .23787 1.0993 107.2 21.3 .064 143
2021 09 17 10  04 31 14.845   -10 33 14.10  .23786 1.0991 107.2 21.3 .068 142
2021 09 17 11  04 31 31.806   -10 35 04.31  .23784 1.0990 107.2 21.3 .072 141
2021 09 17 12  04 31 48.765   -10 36 54.48  .23782 1.0988 107.1 21.3 .075 140
2021 09 17 13  04 32 05.724   -10 38 44.60  .23781 1.0987 107.1 21.3 .079 139
2021 09 17 14  04 32 22.681   -10 40 34.68  .23779 1.0985 107.1 21.3 .083 138
2021 09 17 15  04 32 39.638   -10 42 24.71  .23778 1.0984 107.0 21.3 .087 138